EW4141 Baiting Hollow NY US current weather conditions

sailwx.info

Wind from 072 at 4 knots gusting 11

Air temperature 13.3° C
Dewpoint 11.4° C

Last reported at 2019-Oct-22 13:05 UTC.
Time now 2019-Oct-22 13:31 UTC

Location: N 40°59' W 072°43'.
View on Google Maps.

See reports from other nearby stations

  
Tides and Currents Weather Stations Pressure Air Temp Water Temp Dewpoint Dewpoint Depression Visibility Wind Speed Wind Dir Waves Ship Positions
date/time (UTC)wind fromknots sea level pressurealtimeterstation pressurevisibilityair tempwater tempwave heightnotes
2019-Oct-22 13:10 090 4 gusting 11 13.3
2019-Oct-22 13:05 072 4 gusting 11 13.3
2019-Oct-22 13:00 075 3 gusting 8 12.8
2019-Oct-22 12:55 097 3 gusting 9 12.8
2019-Oct-22 12:50 096 3 gusting 9 12.8
2019-Oct-22 12:45 089 3 gusting 7 12.8
2019-Oct-22 12:40 078 2 gusting 7 12.8
2019-Oct-22 12:35 071 2 gusting 7 12.8
2019-Oct-22 12:30 084 1 gusting 5 12.8
2019-Oct-22 12:25 090 1 gusting 7 12.8
2019-Oct-22 12:20 097 2 gusting 7 12.8
2019-Oct-22 12:15 097 2 gusting 8 12.8
2019-Oct-22 12:10 094 3 gusting 8 12.8
2019-Oct-22 12:05 091 4 gusting 9 12.2
2019-Oct-22 12:00 096 3 gusting 9 12.2
2019-Oct-22 11:55 100 3 gusting 7 12.2
2019-Oct-22 11:50 103 4 gusting 10 12.2
2019-Oct-22 11:45 107 4 gusting 10 12.2
2019-Oct-22 11:40 104 4 gusting 8 12.2
2019-Oct-22 11:35 091 3 gusting 8 12.2
2019-Oct-22 11:30 086 2 gusting 7 12.2
2019-Oct-22 11:25 085 2 gusting 7 12.2
2019-Oct-22 11:20 090 2 gusting 7 12.2
2019-Oct-22 11:15 096 3 gusting 8 12.2
2019-Oct-22 11:10 093 3 gusting 8 12.2
2019-Oct-22 11:05 094 4 gusting 8 12.2
2019-Oct-22 11:00 092 3 gusting 7 12.2
2019-Oct-22 10:55 091 3 gusting 8 12.2
2019-Oct-22 10:50 099 3 gusting 8 12.2
2019-Oct-22 10:45 101 4 gusting 9 12.2
2019-Oct-22 10:40 093 4 gusting 9 12.2
2019-Oct-22 10:35 082 4 gusting 8 12.2
2019-Oct-22 10:30 077 5 gusting 10 12.2
2019-Oct-22 10:25 077 3 gusting 10 12.2
2019-Oct-22 10:20 087 3 gusting 7 12.2
2019-Oct-22 10:15 089 2 gusting 7 12.2
2019-Oct-22 10:10 083 2 gusting 6 12.2
2019-Oct-22 10:05 085 2 gusting 6 12.2
2019-Oct-22 10:00 089 2 gusting 6 12.2
2019-Oct-22 09:55 089 2 gusting 6 12.2
2019-Oct-22 09:50 081 3 gusting 8 12.2
2019-Oct-22 09:45 083 3 gusting 8 12.2
2019-Oct-22 09:40 091 2 gusting 6 12.2
2019-Oct-22 09:35 082 3 gusting 6 12.2
2019-Oct-22 09:30 040 2 gusting 10 11.7
2019-Oct-22 09:25 086 3 gusting 10 12.2
2019-Oct-22 09:20 091 3 gusting 8 12.2
2019-Oct-22 09:15 087 4 gusting 8 11.7
2019-Oct-22 09:10 086 4 gusting 8 11.7
2019-Oct-22 09:05 082 4 gusting 8 11.7
2019-Oct-22 09:00 084 5 gusting 12 11.7
2019-Oct-22 08:55 090 4 gusting 12 11.7
2019-Oct-22 08:50 086 3 gusting 9 11.7
2019-Oct-22 08:45 086 2 gusting 9 11.7
2019-Oct-22 08:40 099 5 gusting 10 12.2
2019-Oct-22 08:35 100 4 gusting 10 12.2
2019-Oct-22 08:30 100 3 gusting 7 12.2
2019-Oct-22 08:25 098 4 gusting 9 12.2
2019-Oct-22 08:20 093 5 gusting 9 12.2
2019-Oct-22 08:15 093 4 gusting 10 12.2
2019-Oct-22 08:10 111 6 gusting 11 12.2
2019-Oct-22 08:05 105 6 gusting 11 12.2
2019-Oct-22 08:00 080 4 gusting 8 12.2
2019-Oct-22 07:55 079 4 gusting 9 12.2
2019-Oct-22 07:50 091 4 gusting 9 12.2
2019-Oct-22 07:45 098 4 gusting 9 12.2
2019-Oct-22 07:40 096 4 gusting 9 12.2
2019-Oct-22 07:35 097 4 gusting 9 12.2
2019-Oct-22 07:30 101 3 gusting 8 12.8
2019-Oct-22 07:25 102 3 gusting 10 12.8
2019-Oct-22 07:20 093 5 gusting 10 12.8
2019-Oct-22 07:15 085 4 gusting 9 12.2
2019-Oct-22 07:10 085 4 gusting 9 12.2
2019-Oct-22 07:05 082 4 gusting 9 12.2
2019-Oct-22 07:00 085 6 gusting 12 12.2
2019-Oct-22 06:55 090 5 gusting 12 12.2
2019-Oct-22 06:50 093 4 gusting 9 12.2
2019-Oct-22 06:45 091 4 gusting 9 12.2
2019-Oct-22 06:40 088 4 gusting 7 12.2
2019-Oct-22 06:35 087 3 gusting 7 12.2
2019-Oct-22 06:30 088 4 gusting 8 12.2
2019-Oct-22 06:25 092 4 gusting 9 12.2
2019-Oct-22 06:20 095 4 gusting 9 12.2
2019-Oct-22 06:15 096 4 gusting 9 12.2
2019-Oct-22 06:10 097 4 gusting 9 12.2
2019-Oct-22 06:05 100 4 gusting 8 12.2
2019-Oct-22 06:00 104 4 gusting 9 12.2
2019-Oct-22 05:55 104 4 gusting 9 12.2
2019-Oct-22 05:50 103 5 gusting 9 12.2
2019-Oct-22 05:45 100 4 gusting 9 12.2
2019-Oct-22 05:40 097 3 gusting 7 12.2
2019-Oct-22 05:35 100 3 gusting 8 12.2
2019-Oct-22 05:30 100 4 gusting 8 12.2
2019-Oct-22 05:25 101 5 gusting 9 12.2
2019-Oct-22 05:20 101 5 gusting 9 12.2
2019-Oct-22 05:15 145 5 gusting 10 11.7
2019-Oct-22 05:10 096 5 gusting 10 12.2
2019-Oct-22 05:05 101 4 gusting 7 12.2
2019-Oct-22 05:00 095 4 gusting 7 11.7
2019-Oct-22 04:55 096 3 gusting 8 12.2
2019-Oct-22 04:50 099 4 gusting 8 12.2
2019-Oct-22 04:45 097 4 gusting 8 12.2
2019-Oct-22 04:40 094 3 gusting 8 12.2
2019-Oct-22 04:35 100 3 gusting 6 12.2
2019-Oct-22 04:30 100 2 gusting 6 12.2
2019-Oct-22 04:25 099 3 gusting 6 12.2
2019-Oct-22 04:20 099 4 gusting 6 12.2
2019-Oct-22 04:15 097 4 gusting 6 12.2
2019-Oct-22 04:10 095 4 gusting 6 12.2
2019-Oct-22 04:05 095 4 gusting 6 12.2
2019-Oct-22 04:00 100 3 gusting 6 12.2
2019-Oct-22 03:55 105 3 gusting 6 12.2
2019-Oct-22 03:50 101 4 gusting 6 12.2
2019-Oct-22 03:45 099 4 gusting 7 12.2
2019-Oct-22 03:40 100 3 gusting 8 12.2
2019-Oct-22 03:35 101 3 gusting 8 12.2
2019-Oct-22 03:30 104 3 gusting 6 12.2
2019-Oct-22 03:25 107 4 gusting 8 12.2
2019-Oct-22 03:20 108 4 gusting 8 12.2
2019-Oct-22 03:15 106 4 gusting 7 12.2
2019-Oct-22 03:10 102 4 gusting 8 12.2
2019-Oct-22 03:05 104 4 gusting 8 12.2
2019-Oct-22 03:00 104 5 gusting 10 12.2
2019-Oct-22 02:55 104 5 gusting 10 12.8
2019-Oct-22 02:50 102 5 gusting 11 12.8
2019-Oct-22 02:45 102 6 gusting 11 12.8
2019-Oct-22 02:40 105 5 gusting 11 12.8
2019-Oct-22 02:35 106 5 gusting 12 12.8
2019-Oct-22 02:30 100 6 gusting 12 12.8
2019-Oct-22 02:25 099 6 gusting 11 12.8
2019-Oct-22 02:20 104 6 gusting 11 12.8
2019-Oct-22 02:15 104 6 gusting 11 12.8
2019-Oct-22 02:10 105 6 gusting 11 12.8
2019-Oct-22 02:05 101 6 gusting 12 12.8
2019-Oct-22 02:00 100 6 gusting 13 12.8
2019-Oct-22 01:55 102 6 gusting 13 12.8
2019-Oct-22 01:50 101 6 gusting 11 12.8
2019-Oct-22 01:45 101 6 gusting 11 12.8
2019-Oct-22 01:40 101 6 gusting 11 12.8
2019-Oct-22 01:35 105 6 gusting 10 12.8
2019-Oct-22 01:30 108 6 gusting 9 12.8
2019-Oct-22 01:25 110 6 gusting 10 12.8
2019-Oct-22 01:20 111 6 gusting 10 12.8
2019-Oct-22 01:15 109 5 gusting 9 12.8
2019-Oct-22 01:10 106 4 gusting 7 12.8
2019-Oct-22 01:05 108 3 gusting 6 12.8
2019-Oct-22 01:00 111 2 gusting 4 12.8
2019-Oct-22 00:55 107 2 gusting 4 12.8
2019-Oct-22 00:50 104 2 gusting 4 12.8
2019-Oct-22 00:45 110 3 gusting 5 12.8
2019-Oct-22 00:40 109 4 gusting 8 12.8
2019-Oct-22 00:35 111 5 gusting 8 12.8
2019-Oct-22 00:30 116 5 gusting 9 12.8
2019-Oct-22 00:25 117 5 gusting 9 12.8
2019-Oct-22 00:20 117 5 gusting 8 12.8
2019-Oct-22 00:15 113 4 gusting 6 12.8
2019-Oct-22 00:10 111 4 gusting 7 12.8
2019-Oct-22 00:05 116 4 gusting 7 12.8
2019-Oct-22 00:00 120 3 gusting 6 12.8
2019-Oct-21 23:55 122 3 gusting 6 12.8
2019-Oct-21 23:50 120 3 gusting 5 12.8
2019-Oct-21 23:45 116 3 gusting 5 12.8
2019-Oct-21 23:40 115 3 gusting 5 12.8
2019-Oct-21 23:35 111 2 gusting 4 12.8
2019-Oct-21 23:30 120 3 gusting 4 12.8
2019-Oct-21 23:25 131 3 gusting 4 12.8
2019-Oct-21 23:20 133 3 gusting 6 12.8
2019-Oct-21 23:15 137 3 gusting 6 12.8
2019-Oct-21 23:10 139 1 gusting 4 13.3
2019-Oct-21 23:05 141 1 gusting 3 13.3
2019-Oct-21 23:00 145 2 gusting 3 13.3
2019-Oct-21 22:55 149 1 gusting 3 13.3
2019-Oct-21 22:50 158 13.3
2019-Oct-21 22:45 159 13.3
2019-Oct-21 22:40 13.3
2019-Oct-21 22:35 164 13.9
2019-Oct-21 22:30 164 13.9
2019-Oct-21 22:25 218 13.9
2019-Oct-21 22:20 217 13.9
2019-Oct-21 22:15 219 0 gusting 2 14.4
2019-Oct-21 22:10 222 0 gusting 3 14.4
2019-Oct-21 22:05 235 0 gusting 3 14.4
2019-Oct-21 22:00 252 0 gusting 2 14.4
2019-Oct-21 21:55 255 0 gusting 2 14.4
2019-Oct-21 21:50 255 0 gusting 2 14.4
2019-Oct-21 21:45 256 0 gusting 2 15.0
2019-Oct-21 21:40 283 0 gusting 2 15.0
2019-Oct-21 21:35 307 1 gusting 3 15.0
2019-Oct-21 21:30 301 1 gusting 3 15.0
2019-Oct-21 21:25 291 0 gusting 2 15.0
2019-Oct-21 21:20 297 1 gusting 2 15.0
2019-Oct-21 21:15 304 1 gusting 2 15.0
2019-Oct-21 21:10 303 1 gusting 2 15.0
2019-Oct-21 21:05 294 1 gusting 2 15.0
2019-Oct-21 21:00 288 0 gusting 2 15.0
2019-Oct-21 20:55 303 1 gusting 2 15.0
2019-Oct-21 20:50 318 1 gusting 2 15.0
2019-Oct-21 20:45 345 1 gusting 2 15.0
2019-Oct-21 20:40 352 1 gusting 2 15.0
2019-Oct-21 20:35 319 1 gusting 3 15.0
2019-Oct-21 20:30 301 1 gusting 3 15.0
2019-Oct-21 20:25 303 2 gusting 6 15.0
2019-Oct-21 20:20 302 3 gusting 7 15.0
2019-Oct-21 20:15 294 2 gusting 7 15.0
2019-Oct-21 20:10 281 2 gusting 6 15.0
2019-Oct-21 20:05 286 2 gusting 6 15.0
2019-Oct-21 20:00 295 2 gusting 5 15.0
2019-Oct-21 19:55 298 1 gusting 4 15.0
2019-Oct-21 19:50 300 1 gusting 3 15.0
2019-Oct-21 19:45 295 1 gusting 2 15.0
2019-Oct-21 19:40 298 1 gusting 2 15.0
2019-Oct-21 19:35 303 1 gusting 2 15.0
2019-Oct-21 19:30 307 1 gusting 2 15.0
2019-Oct-21 19:25 323 0 gusting 2 15.0
2019-Oct-21 19:20 356 0 gusting 1 15.0
2019-Oct-21 19:15 005 0 gusting 1 15.0
2019-Oct-21 19:10 008 1 gusting 2 15.0
2019-Oct-21 19:05 011 1 gusting 3 15.6
2019-Oct-21 19:00 008 2 gusting 3 15.6
2019-Oct-21 18:55 004 2 gusting 3 15.6
2019-Oct-21 18:50 010 2 gusting 4 15.6
2019-Oct-21 18:45 008 2 gusting 4 15.0
2019-Oct-21 18:40 024 2 gusting 4 15.6
2019-Oct-21 18:35 037 2 gusting 5 15.6
2019-Oct-21 18:30 044 2 gusting 5 15.6
2019-Oct-21 18:25 047 3 gusting 5 15.6
2019-Oct-21 18:20 049 2 gusting 6 15.6
2019-Oct-21 18:15 049 2 gusting 6 15.6
2019-Oct-21 18:10 047 2 gusting 4 15.0
2019-Oct-21 18:05 048 2 gusting 6 15.0
2019-Oct-21 18:00 048 2 gusting 6 15.0
2019-Oct-21 17:55 049 2 gusting 4 15.0
2019-Oct-21 17:50 049 2 gusting 6 14.4
2019-Oct-21 17:20 045 4 gusting 7 14.4
2019-Oct-21 17:15 045 3 gusting 7 13.9
2019-Oct-21 17:10 044 4 gusting 7 14.4
2019-Oct-21 17:05 044 4 gusting 7 14.4
2019-Oct-21 17:00 071 4 gusting 7 13.9
2019-Oct-21 16:55 037 4 gusting 8 13.9
2019-Oct-21 16:50 031 4 gusting 8 13.9
2019-Oct-21 16:45 038 5 gusting 9 13.9
2019-Oct-21 16:40 045 6 gusting 9 13.9
2019-Oct-21 16:35 043 6 gusting 9 13.9
2019-Oct-21 16:30 046 5 gusting 9 13.3
2019-Oct-21 16:25 041 6 gusting 10 13.3
2019-Oct-21 16:20 033 6 gusting 10 13.3
2019-Oct-21 16:15 022 6 gusting 10 13.3
2019-Oct-21 16:10 019 7 gusting 11 13.3
2019-Oct-21 16:05 022 6 gusting 11 13.3
2019-Oct-21 16:00 022 6 gusting 11 13.3
2019-Oct-21 15:55 024 7 gusting 12 13.3
2019-Oct-21 15:50 023 7 gusting 12 13.3
2019-Oct-21 15:45 023 7 gusting 12 13.3
2019-Oct-21 15:40 033 8 gusting 13 13.3
2019-Oct-21 15:35 039 8 gusting 14 12.8
2019-Oct-21 15:30 036 8 gusting 14 12.8
2019-Oct-21 15:25 028 9 gusting 16 12.8
2019-Oct-21 15:20 021 10 gusting 16 12.8
2019-Oct-21 15:15 025 9 gusting 14 12.8
2019-Oct-21 15:10 023 9 gusting 15 12.8
2019-Oct-21 15:05 018 10 gusting 16 12.8
2019-Oct-21 15:00 346 7 gusting 16 12.8
2019-Oct-21 14:55 023 10 gusting 18 12.8
2019-Oct-21 14:50 018 9 gusting 18 12.8
2019-Oct-21 14:45 017 10 gusting 17 12.8
2019-Oct-21 14:40 020 10 gusting 17 12.8
2019-Oct-21 14:35 022 10 gusting 17 12.8
2019-Oct-21 14:30 020 11 gusting 17 12.8
2019-Oct-21 14:25 022 11 gusting 17 12.8
2019-Oct-21 14:20 023 11 gusting 19 12.8
2019-Oct-21 14:15 031 11 gusting 19 12.8
2019-Oct-21 14:10 039 10 gusting 17 12.8
2019-Oct-21 14:05 039 11 gusting 17 12.8
2019-Oct-21 14:00 037 10 gusting 17 12.8
2019-Oct-21 13:55 030 10 gusting 17 12.8
2019-Oct-21 13:50 034 11 gusting 17 12.8
2019-Oct-21 13:45 039 12 gusting 20 12.8
2019-Oct-21 13:40 034 12 gusting 20 12.2
2019-Oct-21 13:35 027 12 gusting 19 12.2
2019-Oct-21 13:30 024 13 gusting 20 12.2
2019-Oct-21 13:25 030 13 gusting 20 12.2
2019-Oct-21 13:20 032 11 gusting 19 12.2
2019-Oct-21 13:15 028 9 gusting 18 12.2
2019-Oct-21 13:10 032 10 gusting 17 12.2
2019-Oct-21 13:05 037 11 gusting 16 12.2
2019-Oct-21 13:00 036 11 gusting 18 12.2
2019-Oct-21 12:55 029 10 gusting 18 12.2
2019-Oct-21 12:50 022 11 gusting 19 12.2
2019-Oct-21 12:45 018 12 gusting 19 12.2
2019-Oct-21 12:40 018 12 gusting 19 12.2
2019-Oct-21 12:35 018 13 gusting 19 12.2
2019-Oct-21 12:30 016 13 gusting 20 12.2
2019-Oct-21 12:25 012 14 gusting 20 12.2
2019-Oct-21 12:20 013 16 gusting 21 12.2
2019-Oct-21 12:15 014 16 gusting 22 12.2
2019-Oct-21 12:10 014 16 gusting 22 12.2
2019-Oct-21 12:05 015 16 gusting 22 12.8
2019-Oct-21 12:00 012 16 gusting 22 12.8
2019-Oct-21 11:55 011 17 gusting 24 12.8
2019-Oct-21 11:50 012 19 gusting 24 12.8
2019-Oct-21 11:45 011 19 gusting 24 12.8
2019-Oct-21 11:40 011 18 gusting 24 12.8
2019-Oct-21 11:35 012 16 gusting 22 12.8
2019-Oct-21 11:30 014 16 gusting 22 12.8
2019-Oct-21 11:25 013 16 gusting 22 12.8
2019-Oct-21 11:20 013 16 gusting 23 12.8
2019-Oct-21 11:15 014 16 gusting 23 12.8
2019-Oct-21 11:10 014 16 gusting 22 12.8
2019-Oct-21 11:05 015 17 gusting 22 12.8
2019-Oct-21 11:00 013 16 gusting 21 12.8
2019-Oct-21 10:55 010 17 gusting 22 12.8
2019-Oct-21 10:50 010 16 gusting 22 12.8
2019-Oct-21 10:45 011 16 gusting 23 12.8
2019-Oct-21 10:40 012 16 gusting 23 12.8
2019-Oct-21 10:35 012 16 gusting 23 12.8
2019-Oct-21 10:30 014 15 gusting 23 12.8
2019-Oct-21 10:25 014 15 gusting 22 12.8
2019-Oct-21 10:20 013 16 gusting 22 12.8
2019-Oct-21 10:15 015 16 gusting 21 12.8
2019-Oct-21 10:10 013 16 gusting 21 12.8
2019-Oct-21 10:05 009 17 gusting 22 12.8
2019-Oct-21 10:00 009 17 gusting 23 12.8
2019-Oct-21 09:55 009 19 gusting 24 12.8
2019-Oct-21 09:50 010 19 gusting 24 12.8
2019-Oct-21 09:45 010 18 gusting 23 12.8
2019-Oct-21 09:40 010 16 gusting 22 12.8
2019-Oct-21 09:35 012 14 gusting 21 12.8
2019-Oct-21 09:30 025 13 gusting 23 12.8
2019-Oct-21 09:25 010 16 gusting 23 12.8
2019-Oct-21 09:20 011 15 gusting 23 12.8
2019-Oct-21 09:15 015 15 gusting 21 12.8
2019-Oct-21 09:10 013 17 gusting 22 12.8
2019-Oct-21 09:05 008 18 gusting 24 12.8
2019-Oct-21 09:00 010 18 gusting 24 12.8
2019-Oct-21 08:55 012 17 gusting 23 12.8
2019-Oct-21 08:50 010 18 gusting 24 12.8
2019-Oct-21 08:45 013 17 gusting 24 12.8
2019-Oct-21 08:40 016 16 gusting 23 12.8
2019-Oct-21 08:35 015 17 gusting 23 12.8
2019-Oct-21 08:30 014 16 gusting 22 12.8
2019-Oct-21 08:25 014 15 gusting 23 12.8
2019-Oct-21 08:20 012 16 gusting 23 12.8
2019-Oct-21 08:15 013 16 gusting 22 12.2
2019-Oct-21 08:10 012 16 gusting 22 12.8
2019-Oct-21 08:05 011 18 gusting 23 12.8
2019-Oct-21 08:00 013 16 gusting 23 12.8
2019-Oct-21 07:55 014 14 gusting 20 12.8
2019-Oct-21 07:50 017 13 gusting 19 12.8
2019-Oct-21 07:45 020 11 gusting 18 12.8
2019-Oct-21 07:40 021 12 gusting 19 12.8
2019-Oct-21 07:35 021 13 gusting 19 12.2
2019-Oct-21 07:30 020 13 gusting 21 12.8
2019-Oct-21 07:25 019 13 gusting 21 12.8
2019-Oct-21 07:20 020 12 gusting 19 12.8
2019-Oct-21 07:15 040 12 gusting 19 12.2
2019-Oct-21 07:10 018 13 gusting 19 12.2
2019-Oct-21 07:05 022 13 gusting 19 12.2
2019-Oct-21 07:00 030 13 gusting 19 12.2
2019-Oct-21 06:55 034 12 gusting 19 12.2
2019-Oct-21 06:50 028 13 gusting 19 12.2
2019-Oct-21 06:45 023 13 gusting 19 12.2
2019-Oct-21 06:40 017 13 gusting 23 12.2
2019-Oct-21 06:35 015 14 gusting 23 12.2
2019-Oct-21 06:30 014 15 gusting 25 12.2
2019-Oct-21 06:25 013 17 gusting 25 12.2
2019-Oct-21 06:20 012 16 gusting 23 12.2
2019-Oct-21 06:15 013 14 gusting 21 12.2
2019-Oct-21 06:10 017 14 gusting 21 12.2
2019-Oct-21 06:05 018 14 gusting 21 12.2
2019-Oct-21 06:00 020 13 gusting 21 12.2
2019-Oct-21 05:55 021 11 gusting 20 12.2
2019-Oct-21 05:50 021 10 gusting 18 12.2
2019-Oct-21 05:45 024 11 gusting 19 12.2
2019-Oct-21 05:40 026 12 gusting 19 12.2
2019-Oct-21 05:35 029 11 gusting 18 12.2
2019-Oct-21 05:30 035 11 gusting 18 12.2
2019-Oct-21 05:25 035 12 gusting 19 12.2
2019-Oct-21 05:20 032 11 gusting 19 12.2
2019-Oct-21 05:15 032 10 gusting 18 12.2
2019-Oct-21 05:10 032 10 gusting 18 12.2
2019-Oct-21 05:05 035 10 gusting 18 12.2
2019-Oct-21 05:00 075 9 gusting 16 11.7
2019-Oct-21 04:55 038 10 gusting 17 12.2
2019-Oct-21 04:50 042 11 gusting 17 12.2
2019-Oct-21 04:45 046 11 gusting 18 11.7
2019-Oct-21 04:40 049 11 gusting 18 11.7
2019-Oct-21 04:35 043 11 gusting 17 11.7
2019-Oct-21 04:30 040 11 gusting 17 11.7
2019-Oct-21 04:25 043 9 gusting 17 11.7
2019-Oct-21 04:20 042 9 gusting 17 11.7
2019-Oct-21 04:15 041 10 gusting 17 11.7
2019-Oct-21 04:10 044 9 gusting 17 11.7
2019-Oct-21 04:05 046 10 gusting 17 11.7
2019-Oct-21 04:00 046 10 gusting 17 11.7
2019-Oct-21 03:55 049 10 gusting 17 11.7
2019-Oct-21 03:50 052 10 gusting 16 11.7
2019-Oct-21 03:45 049 9 gusting 16 11.7
2019-Oct-21 03:40 048 9 gusting 16 11.7
2019-Oct-21 03:35 044 8 gusting 16 12.2
2019-Oct-21 03:30 039 10 gusting 15 12.2
2019-Oct-21 03:25 037 10 gusting 17 12.2
2019-Oct-21 03:20 038 10 gusting 17 12.2
2019-Oct-21 03:15 039 8 gusting 15 12.2
2019-Oct-21 03:10 031 7 gusting 16 12.2
2019-Oct-21 03:05 030 9 gusting 17 12.2
2019-Oct-21 03:00 034 8 gusting 17 12.2
2019-Oct-21 02:55 029 8 gusting 13 12.2
2019-Oct-21 02:50 019 9 gusting 16 12.2
2019-Oct-21 02:45 035 9 gusting 16 12.2
2019-Oct-21 02:40 047 10 gusting 15 12.2
2019-Oct-21 02:35 043 10 gusting 16 12.2
2019-Oct-21 02:30 041 9 gusting 16 12.2
2019-Oct-21 02:25 041 8 gusting 16 12.2
2019-Oct-21 02:20 042 8 gusting 15 12.2
2019-Oct-21 02:15 044 8 gusting 15 12.2
2019-Oct-21 02:10 050 9 gusting 15 12.2
2019-Oct-21 02:05 057 9 gusting 18 12.2
2019-Oct-21 02:00 047 9 gusting 18 12.2
2019-Oct-21 01:55 031 8 gusting 14 12.2
2019-Oct-21 01:50 030 8 gusting 13 12.2
2019-Oct-21 01:45 040 8 gusting 14 12.2
2019-Oct-21 01:40 052 7 gusting 14 12.2
2019-Oct-21 01:35 061 6 gusting 13 12.2
2019-Oct-21 01:30 076 5 gusting 13 12.2
2019-Oct-21 01:25 061 6 gusting 12 12.2
2019-Oct-21 01:20 035 6 gusting 13 12.2
2019-Oct-21 01:15 038 6 gusting 13 12.2
2019-Oct-21 01:10 050 6 gusting 13 12.2
2019-Oct-21 01:05 078 5 gusting 13 11.7
2019-Oct-21 01:00 099 5 gusting 8 11.7
2019-Oct-21 00:55 110 5 gusting 11 11.7
2019-Oct-21 00:50 119 7 gusting 13 11.7
2019-Oct-21 00:45 117 7 gusting 13 11.7
2019-Oct-21 00:40 114 6 gusting 12 11.7
2019-Oct-21 00:35 115 6 gusting 11 11.7
2019-Oct-21 00:30 110 6 gusting 10 11.7
2019-Oct-21 00:25 108 5 gusting 10 11.7
2019-Oct-21 00:20 106 4 gusting 10 11.7
2019-Oct-21 00:15 088 4 gusting 10 11.7
2019-Oct-21 00:10 061 4 gusting 11 11.7
2019-Oct-21 00:05 048 4 gusting 11 11.7
2019-Oct-21 00:00 051 4 gusting 9 11.7
2019-Oct-20 23:55 054 3 gusting 9 11.1
2019-Oct-20 23:50 049 3 gusting 8 11.1
2019-Oct-20 23:45 054 3 gusting 8 11.1
2019-Oct-20 23:40 075 3 gusting 8 11.1
2019-Oct-20 23:35 089 3 gusting 7 11.1
2019-Oct-20 23:30 083 3 gusting 7 11.1
2019-Oct-20 23:25 059 3 gusting 8 11.1
2019-Oct-20 23:20 035 5 gusting 9 11.7
2019-Oct-20 23:15 037 6 gusting 11 11.7
2019-Oct-20 23:10 041 6 gusting 12 11.7
2019-Oct-20 23:05 039 5 gusting 12 12.2
2019-Oct-20 23:00 052 5 gusting 10 12.2
2019-Oct-20 22:55 049 6 gusting 12 12.2
2019-Oct-20 22:50 038 7 gusting 13 12.2
2019-Oct-20 22:45 025 8 gusting 15 12.8
2019-Oct-20 22:40 024 6 gusting 15 12.8
2019-Oct-20 22:35 056 4 gusting 11 12.8
2019-Oct-20 22:30 091 4 gusting 8 12.8
2019-Oct-20 22:25 102 4 gusting 8 12.8
2019-Oct-20 22:20 101 3 gusting 7 12.8
2019-Oct-20 22:15 098 3 gusting 7 12.8
2019-Oct-20 22:10 097 3 gusting 6 12.8
2019-Oct-20 22:05 095 3 gusting 7 12.8
2019-Oct-20 22:00 097 3 gusting 7 12.8
2019-Oct-20 21:55 101 3 gusting 6 12.8
2019-Oct-20 21:50 099 3 gusting 6 12.8
2019-Oct-20 21:45 099 4 gusting 7 13.3
2019-Oct-20 21:40 102 4 gusting 8 13.3
2019-Oct-20 21:35 102 4 gusting 8 13.3
2019-Oct-20 21:30 104 3 gusting 6 13.3
2019-Oct-20 21:25 112 3 gusting 6 13.3
2019-Oct-20 21:20 115 4 gusting 7 13.3
2019-Oct-20 21:15 113 4 gusting 7 13.3
2019-Oct-20 21:10 109 3 gusting 6 13.3
2019-Oct-20 21:05 103 3 gusting 5 13.3
2019-Oct-20 21:00 104 3 gusting 5 13.3
2019-Oct-20 20:55 114 3 gusting 5 13.9
2019-Oct-20 20:50 121 3 gusting 5 13.9
2019-Oct-20 20:45 121 3 gusting 6 13.9
2019-Oct-20 20:40 123 3 gusting 6 13.9
2019-Oct-20 20:35 121 2 gusting 4 13.9
2019-Oct-20 20:30 118 3 gusting 6 14.4
2019-Oct-20 20:25 119 3 gusting 6 14.4
2019-Oct-20 20:20 117 3 gusting 6 14.4
2019-Oct-20 20:15 110 3 gusting 5 14.4
2019-Oct-20 20:10 108 2 gusting 5 14.4
2019-Oct-20 20:05 112 2 gusting 5 14.4
2019-Oct-20 20:00 114 2 gusting 6 14.4
2019-Oct-20 19:55 109 3 gusting 6 15.0
2019-Oct-20 19:50 109 3 gusting 7 15.0
2019-Oct-20 19:45 115 2 gusting 7 15.0
2019-Oct-20 19:40 109 2 gusting 5 15.0
2019-Oct-20 19:35 108 3 gusting 7 15.0
2019-Oct-20 19:30 112 3 gusting 7 15.0
2019-Oct-20 19:25 116 2 gusting 6 15.0
2019-Oct-20 19:20 121 2 gusting 4 15.6
2019-Oct-20 19:15 114 3 gusting 6 15.6
2019-Oct-20 19:10 109 3 gusting 6 15.6
2019-Oct-20 19:05 110 1 gusting 6 15.6
2019-Oct-20 19:00 112 2 gusting 6 15.6
2019-Oct-20 18:55 115 2 gusting 6 15.6
2019-Oct-20 18:50 113 1 gusting 4 15.6
2019-Oct-20 18:45 110 2 gusting 4 15.6
2019-Oct-20 18:40 115 2 gusting 6 15.6
2019-Oct-20 18:35 122 2 gusting 6 15.6
2019-Oct-20 18:30 120 2 gusting 6 15.6
2019-Oct-20 18:25 117 2 gusting 5 15.6
2019-Oct-20 18:20 127 2 gusting 5 15.6
2019-Oct-20 18:15 129 1 gusting 4 16.1
2019-Oct-20 18:10 135 2 gusting 6 16.1
2019-Oct-20 18:05 135 2 gusting 6 16.1
2019-Oct-20 18:00 128 2 gusting 7 16.1
2019-Oct-20 17:55 136 3 gusting 7 16.1
2019-Oct-20 17:50 139 3 gusting 6 16.1
2019-Oct-20 17:45 136 4 gusting 8 16.1
2019-Oct-20 17:40 136 4 gusting 8 16.1
2019-Oct-20 17:35 136 3 gusting 7 16.1
2019-Oct-20 17:30 144 3 gusting 8 16.1
2019-Oct-20 17:25 144 3 gusting 8 16.1
2019-Oct-20 17:20 141 3 gusting 9 16.1
2019-Oct-20 17:15 145 4 gusting 9 16.1
2019-Oct-20 17:10 149 3 gusting 7 16.1
2019-Oct-20 17:05 140 3 gusting 9 15.6
2019-Oct-20 17:00 135 5 gusting 9 15.6
2019-Oct-20 16:55 135 5 gusting 10 15.6
2019-Oct-20 16:50 139 6 gusting 10 15.6
2019-Oct-20 16:45 142 6 gusting 11 15.6
2019-Oct-20 16:40 143 6 gusting 11 15.6
2019-Oct-20 16:35 147 5 gusting 10 15.6
2019-Oct-20 16:30 150 4 gusting 9 15.6
2019-Oct-20 16:25 145 3 gusting 7 15.6
2019-Oct-20 16:20 141 4 gusting 8 15.6
2019-Oct-20 16:15 139 4 gusting 8 15.6
2019-Oct-20 16:10 139 5 gusting 8 15.6
2019-Oct-20 16:05 139 4 gusting 8 15.6
2019-Oct-20 16:00 140 4 gusting 9 15.6
2019-Oct-20 15:55 139 5 gusting 11 15.6
2019-Oct-20 15:50 141 5 gusting 11 15.6
2019-Oct-20 15:45 141 4 gusting 9 15.6
2019-Oct-20 15:40 142 4 gusting 8 15.0
2019-Oct-20 15:35 147 4 gusting 10 15.0
2019-Oct-20 15:30 142 4 gusting 10 15.0
2019-Oct-20 15:25 139 4 gusting 8 15.0
2019-Oct-20 15:20 141 4 gusting 10 15.0
2019-Oct-20 15:15 135 4 gusting 10 15.0
2019-Oct-20 15:10 134 4 gusting 9 14.4
2019-Oct-20 15:05 136 4 gusting 8 14.4
2019-Oct-20 15:00 134 4 gusting 7 14.4
2019-Oct-20 14:55 137 4 gusting 8 14.4
2019-Oct-20 14:50 140 2 gusting 8 14.4
2019-Oct-20 14:45 137 1 gusting 6 13.9
2019-Oct-20 14:40 130 2 gusting 6 13.9
2019-Oct-20 14:35 123 3 gusting 6 13.9
2019-Oct-20 14:30 123 2 gusting 6 13.3
2019-Oct-20 14:25 128 2 gusting 6 13.3
2019-Oct-20 14:20 135 2 gusting 6 13.3
2019-Oct-20 14:15 143 1 gusting 5 12.8
2019-Oct-20 14:10 131 1 gusting 4 12.8
2019-Oct-20 14:05 129 2 gusting 6 12.8
2019-Oct-20 14:00 125 3 gusting 6 12.8
2019-Oct-20 13:55 124 3 gusting 6 12.2
2019-Oct-20 13:50 128 3 gusting 7 12.2
2019-Oct-20 13:45 130 3 gusting 7 12.2
2019-Oct-20 13:40 131 3 gusting 6 12.2
2019-Oct-20 13:35 132 3 gusting 6 12.2
2019-Oct-20 13:30 139 3 gusting 7 12.2
2019-Oct-20 13:25 142 3 gusting 7 12.2
2019-Oct-20 13:20 142 3 gusting 7 11.7
2019-Oct-20 13:15 140 3 gusting 7 11.7
2019-Oct-20 13:10 131 3 gusting 6 11.7
2019-Oct-20 13:05 130 3 gusting 6 11.1
2019-Oct-20 13:00 130 2 gusting 6 11.1